OAL737 LPMA-LGAV

Flight info

Callsign OAL737
Flight time 4h 11m
Altitude 36000
Route BENTU/N0439F360 DCT AMPIR DCT SOVIS DCT GOSOS DCT GONZA DCT GOLFO DCT MIMDI/N0429F370 DCT LIMON DCT TORPI DCT ENESI DCT ARA
Aircraft A320/M-SDE3FGHIRWY/LB1

Departure

Time 2026-05-06 16:51
Airport Cristiano Ronaldo International Airport (LPMA)

Arrival

Time 2026-05-06 21:02
Airport Athens Eleftherios Venizelos International Airport (LGAV)
Time Latitude Longitude Altitude Speed Heading
2026-05-06 16:05 32.69334 -16.77698 177 ft 0 kts 138°
2026-05-06 16:44 32.69344 -16.77708 176 ft 2 kts 138°
2026-05-06 16:44 32.69364 -16.77726 176 ft 4 kts 158°
2026-05-06 16:45 32.69388 -16.77730 176 ft 4 kts 202°
2026-05-06 16:45 32.69401 -16.77721 176 ft 1 kts 226°
2026-05-06 16:45 32.69403 -16.77719 176 ft 0 kts 226°
2026-05-06 16:47 32.69402 -16.77719 176 ft 0 kts 226°
2026-05-06 16:48 32.69381 -16.77746 176 ft 12 kts 225°
2026-05-06 16:48 32.69309 -16.77833 176 ft 13 kts 227°
2026-05-06 16:48 32.69288 -16.77924 176 ft 11 kts 269°
2026-05-06 16:48 32.69273 -16.78038 176 ft 19 kts 242°
2026-05-06 16:49 32.69162 -16.78180 176 ft 25 kts 225°
2026-05-06 16:49 32.69078 -16.78277 176 ft 24 kts 225°
2026-05-06 16:49 32.68980 -16.78381 176 ft 14 kts 205°
2026-05-06 16:49 32.68900 -16.78410 176 ft 9 kts 205°
2026-05-06 16:50 32.68891 -16.78463 176 ft 6 kts 307°
2026-05-06 16:50 32.68925 -16.78455 176 ft 6 kts 34°
2026-05-06 16:50 32.69037 -16.78328 176 ft 54 kts 44°
2026-05-06 16:50 32.69467 -16.77823 176 ft 117 kts 44°
2026-05-06 16:51 32.70167 -16.77008 249 ft 158 kts 40°
2026-05-06 16:51 32.70901 -16.76030 857 ft 161 kts 53°
2026-05-06 16:51 32.71276 -16.74765 1707 ft 166 kts 85°
2026-05-06 16:51 32.71030 -16.73391 2366 ft 181 kts 105°
2026-05-06 16:52 32.70557 -16.71904 2785 ft 204 kts 110°
2026-05-06 16:52 32.70006 -16.70243 3228 ft 229 kts 109°
2026-05-06 16:52 32.69388 -16.68391 3720 ft 253 kts 108°
2026-05-06 16:52 32.68718 -16.66364 4359 ft 271 kts 107°
2026-05-06 16:53 32.68024 -16.64247 5289 ft 278 kts 109°
2026-05-06 16:53 32.67316 -16.62096 5806 ft 287 kts 109°
2026-05-06 16:53 32.66579 -16.59866 6445 ft 292 kts 111°
2026-05-06 16:53 32.65959 -16.57585 7291 ft 293 kts 98°
2026-05-06 16:54 32.65957 -16.55186 8016 ft 291 kts 76°
2026-05-06 16:54 32.66639 -16.52953 8788 ft 287 kts 56°
2026-05-06 16:54 32.67884 -16.51129 9576 ft 284 kts 40°
2026-05-06 16:54 32.69322 -16.49511 10305 ft 288 kts 40°
2026-05-06 16:55 32.70834 -16.47807 10487 ft 311 kts 41°
2026-05-06 16:55 32.72459 -16.45964 10616 ft 334 kts 41°
2026-05-06 16:55 32.74185 -16.43999 10802 ft 352 kts 41°
2026-05-06 16:55 32.75974 -16.41954 11279 ft 359 kts 41°
2026-05-06 16:56 32.77785 -16.39877 11850 ft 364 kts 41°
2026-05-06 16:56 32.79615 -16.37774 12485 ft 369 kts 41°
2026-05-06 16:56 32.81474 -16.35637 13252 ft 374 kts 41°
2026-05-06 16:56 32.83364 -16.33470 14094 ft 381 kts 41°
2026-05-06 16:57 32.85254 -16.31305 14834 ft 384 kts 41°
2026-05-06 16:57 32.87188 -16.29091 15438 ft 388 kts 41°
2026-05-06 16:57 32.89141 -16.26854 15970 ft 391 kts 41°
2026-05-06 16:57 32.91108 -16.24598 16484 ft 394 kts 41°
2026-05-06 16:58 32.93091 -16.22324 16982 ft 397 kts 41°
2026-05-06 16:58 32.95088 -16.20030 17478 ft 400 kts 40°
2026-05-06 16:58 32.97096 -16.17723 17965 ft 403 kts 40°
2026-05-06 16:58 32.99121 -16.15394 18451 ft 406 kts 40°
2026-05-06 16:59 33.01154 -16.13053 18884 ft 408 kts 40°
2026-05-06 16:59 33.03199 -16.10695 19321 ft 409 kts 40°
2026-05-06 16:59 33.05248 -16.08331 19789 ft 411 kts 40°
2026-05-06 16:59 33.07310 -16.05953 20243 ft 413 kts 40°
2026-05-06 17:00 33.09374 -16.03571 20679 ft 414 kts 40°
2026-05-06 17:00 33.11449 -16.01176 21128 ft 415 kts 40°
2026-05-06 17:00 33.13525 -15.98774 21533 ft 418 kts 40°
2026-05-06 17:00 33.15626 -15.96348 21823 ft 423 kts 40°
2026-05-06 17:01 33.17745 -15.93898 22191 ft 425 kts 40°
2026-05-06 17:01 33.19874 -15.91430 22621 ft 427 kts 40°
2026-05-06 17:01 33.22007 -15.88952 23021 ft 428 kts 39°
2026-05-06 17:01 33.24124 -15.86488 23393 ft 430 kts 39°
2026-05-06 17:02 33.26273 -15.83987 23744 ft 432 kts 39°
2026-05-06 17:02 33.28434 -15.81479 24061 ft 434 kts 39°
2026-05-06 17:02 33.30599 -15.78964 24399 ft 435 kts 39°
2026-05-06 17:02 33.32770 -15.76439 24748 ft 436 kts 39°
2026-05-06 17:03 33.34943 -15.73907 25063 ft 437 kts 39°
2026-05-06 17:03 33.37123 -15.71364 25394 ft 437 kts 39°
2026-05-06 17:03 33.39292 -15.68809 25708 ft 440 kts 41°
2026-05-06 17:03 33.41222 -15.65928 26008 ft 448 kts 51°
2026-05-06 17:04 33.42748 -15.62643 26289 ft 457 kts 61°
2026-05-06 17:04 33.43877 -15.59040 26492 ft 464 kts 65°
2026-05-06 17:04 33.44947 -15.55382 26742 ft 466 kts 65°
2026-05-06 17:04 33.46023 -15.51712 27006 ft 467 kts 65°
2026-05-06 17:05 33.47103 -15.48042 27271 ft 468 kts 65°
2026-05-06 17:05 33.48190 -15.44359 27543 ft 470 kts 65°
2026-05-06 17:05 33.49278 -15.40669 27804 ft 471 kts 65°
2026-05-06 17:05 33.50369 -15.36959 28063 ft 472 kts 65°
2026-05-06 17:06 33.51453 -15.33249 28346 ft 473 kts 65°
2026-05-06 17:06 33.52537 -15.29532 28724 ft 471 kts 65°
2026-05-06 17:06 33.53618 -15.25827 29107 ft 469 kts 64°
2026-05-06 17:06 33.54680 -15.22189 29477 ft 468 kts 64°
2026-05-06 17:07 33.55753 -15.18510 29858 ft 466 kts 64°
2026-05-06 17:07 33.56820 -15.14842 30212 ft 465 kts 64°
2026-05-06 17:07 33.57883 -15.11182 30510 ft 464 kts 64°
2026-05-06 17:07 33.58941 -15.07532 30783 ft 464 kts 64°
2026-05-06 17:08 33.60000 -15.03876 31047 ft 464 kts 64°
2026-05-06 17:08 33.61059 -15.00223 31315 ft 463 kts 64°
2026-05-06 17:08 33.62119 -14.96566 31580 ft 463 kts 65°
2026-05-06 17:08 33.63173 -14.92912 31860 ft 463 kts 65°
2026-05-06 17:09 33.64229 -14.89251 32051 ft 465 kts 65°
2026-05-06 17:09 33.65287 -14.85585 32295 ft 465 kts 65°
2026-05-06 17:09 33.66347 -14.81909 32547 ft 465 kts 65°
2026-05-06 17:09 33.67406 -14.78239 32808 ft 465 kts 65°
2026-05-06 17:10 33.68462 -14.74563 33053 ft 465 kts 65°
2026-05-06 17:10 33.69514 -14.70886 33306 ft 466 kts 66°
2026-05-06 17:10 33.70565 -14.67211 33562 ft 465 kts 66°
2026-05-06 17:10 33.71616 -14.63532 33808 ft 465 kts 66°
2026-05-06 17:11 33.72664 -14.59859 34059 ft 465 kts 66°
2026-05-06 17:11 33.73716 -14.56179 34304 ft 465 kts 66°
2026-05-06 17:11 33.74768 -14.52497 34474 ft 467 kts 66°
2026-05-06 17:11 33.75819 -14.48804 34663 ft 467 kts 66°
2026-05-06 17:12 33.76864 -14.45116 34891 ft 466 kts 66°
2026-05-06 17:12 33.77906 -14.41428 35109 ft 466 kts 66°
2026-05-06 17:12 33.78935 -14.37785 35322 ft 465 kts 66°
2026-05-06 17:12 33.79977 -14.34112 35520 ft 465 kts 66°
2026-05-06 17:13 33.81022 -14.30427 35731 ft 464 kts 66°
2026-05-06 17:13 33.82060 -14.26761 35928 ft 464 kts 66°
2026-05-06 17:13 33.83095 -14.23088 36040 ft 464 kts 66°
2026-05-06 17:14 33.85163 -14.15722 36061 ft 466 kts 66°
2026-05-06 17:14 33.87228 -14.08323 36074 ft 466 kts 66°
2026-05-06 17:15 33.89301 -14.00921 36061 ft 467 kts 66°
2026-05-06 17:15 33.91375 -13.93525 36063 ft 467 kts 66°
2026-05-06 17:16 33.93441 -13.86115 36062 ft 467 kts 66°
2026-05-06 17:16 33.95504 -13.78672 36088 ft 470 kts 67°
2026-05-06 17:17 33.97564 -13.71217 36063 ft 469 kts 67°
2026-05-06 17:17 33.99626 -13.63761 36061 ft 469 kts 67°
2026-05-06 17:18 34.01664 -13.56348 36061 ft 469 kts 67°
2026-05-06 17:18 34.03713 -13.48891 36073 ft 469 kts 68°
2026-05-06 17:19 34.05768 -13.41395 36055 ft 472 kts 68°
2026-05-06 17:19 34.07823 -13.33868 36051 ft 472 kts 68°
2026-05-06 17:20 34.09878 -13.26335 36054 ft 472 kts 68°
2026-05-06 17:20 34.11925 -13.18805 36051 ft 472 kts 68°
2026-05-06 17:21 34.13967 -13.11265 36060 ft 474 kts 68°
2026-05-06 17:21 34.16021 -13.03686 36044 ft 476 kts 68°
2026-05-06 17:22 34.18067 -12.96087 36046 ft 476 kts 69°
2026-05-06 17:22 34.20107 -12.88477 36044 ft 476 kts 69°
2026-05-06 17:23 34.22150 -12.80879 36043 ft 476 kts 68°
2026-05-06 17:23 34.24191 -12.73265 36034 ft 477 kts 69°
2026-05-06 17:24 34.26227 -12.65611 36040 ft 479 kts 69°
2026-05-06 17:24 34.28264 -12.57946 36035 ft 478 kts 69°
2026-05-06 17:25 34.30293 -12.50280 36035 ft 479 kts 69°
2026-05-06 17:25 34.32319 -12.42599 36038 ft 478 kts 69°
2026-05-06 17:26 34.34332 -12.34955 36037 ft 481 kts 70°
2026-05-06 17:26 34.36368 -12.27230 36033 ft 482 kts 70°
2026-05-06 17:27 34.38398 -12.19497 36044 ft 482 kts 70°
2026-05-06 17:27 34.40409 -12.11774 36030 ft 481 kts 70°
2026-05-06 17:28 34.42421 -12.04045 36037 ft 481 kts 70°
2026-05-06 17:28 34.44433 -11.96297 36033 ft 483 kts 70°
2026-05-06 17:29 34.46452 -11.88521 36026 ft 483 kts 70°
2026-05-06 17:29 34.48460 -11.80738 36023 ft 484 kts 70°
2026-05-06 17:30 34.50460 -11.72956 36020 ft 484 kts 70°
2026-05-06 17:30 34.52448 -11.65217 36018 ft 484 kts 70°
2026-05-06 17:31 34.54443 -11.57430 36020 ft 484 kts 70°
2026-05-06 17:31 34.56432 -11.49623 36017 ft 483 kts 70°
2026-05-06 17:32 34.58418 -11.41825 36025 ft 483 kts 70°
2026-05-06 17:32 34.60394 -11.34035 36018 ft 483 kts 71°
2026-05-06 17:33 34.62367 -11.26230 36008 ft 483 kts 71°
2026-05-06 17:33 34.64391 -11.18428 36012 ft 483 kts 69°
2026-05-06 17:34 34.66506 -11.10744 36013 ft 483 kts 69°
2026-05-06 17:34 34.68652 -11.03019 36013 ft 483 kts 69°
2026-05-06 17:35 34.70771 -10.95277 36008 ft 483 kts 69°
2026-05-06 17:35 34.72510 -10.88822 36007 ft 485 kts 70°
2026-05-06 17:36 34.75653 -10.77118 36005 ft 485 kts 70°
2026-05-06 17:36 34.77748 -10.69314 36023 ft 485 kts 70°
2026-05-06 17:37 34.79834 -10.61520 36003 ft 484 kts 70°
2026-05-06 17:37 34.81919 -10.53712 35999 ft 486 kts 71°
2026-05-06 17:38 34.84001 -10.45880 36000 ft 487 kts 71°
2026-05-06 17:38 34.86079 -10.38030 35996 ft 487 kts 71°
2026-05-06 17:39 34.88159 -10.30180 35998 ft 487 kts 71°
2026-05-06 17:39 34.90234 -10.22322 35992 ft 487 kts 71°
2026-05-06 17:40 34.92307 -10.14463 35991 ft 488 kts 71°
2026-05-06 17:40 34.94367 -10.06623 35987 ft 489 kts 71°
2026-05-06 17:41 34.96432 -9.98724 35988 ft 489 kts 72°
2026-05-06 17:41 34.98491 -9.90826 35986 ft 489 kts 72°
2026-05-06 17:42 35.00540 -9.82925 35977 ft 489 kts 72°
2026-05-06 17:42 35.02591 -9.74986 35984 ft 491 kts 72°
2026-05-06 17:43 35.04648 -9.67028 35980 ft 492 kts 72°
2026-05-06 17:43 35.06706 -9.59058 35982 ft 492 kts 72°
2026-05-06 17:44 35.08759 -9.51084 35977 ft 492 kts 72°
2026-05-06 17:44 35.10788 -9.43160 35976 ft 493 kts 73°
2026-05-06 17:45 35.12826 -9.35164 35974 ft 493 kts 73°
2026-05-06 17:45 35.14858 -9.27160 35990 ft 493 kts 73°
2026-05-06 17:46 35.16888 -9.19164 35969 ft 492 kts 73°
2026-05-06 17:46 35.18913 -9.11158 35970 ft 492 kts 73°
2026-05-06 17:47 35.20935 -9.03155 35962 ft 493 kts 73°
2026-05-06 17:47 35.22938 -8.95184 35962 ft 493 kts 73°
2026-05-06 17:48 35.24943 -8.87164 35958 ft 493 kts 73°
2026-05-06 17:48 35.26947 -8.79143 35959 ft 493 kts 73°
2026-05-06 17:49 35.28949 -8.71113 35959 ft 493 kts 73°
2026-05-06 17:49 35.30938 -8.63085 35952 ft 493 kts 73°
2026-05-06 17:50 35.32922 -8.55051 35956 ft 493 kts 73°
2026-05-06 17:50 35.34907 -8.47001 35949 ft 493 kts 73°
2026-05-06 17:51 35.36892 -8.38959 35947 ft 493 kts 73°
2026-05-06 17:51 35.38865 -8.30913 35946 ft 493 kts 73°
2026-05-06 17:52 35.40811 -8.22920 35946 ft 492 kts 73°
2026-05-06 17:52 35.42776 -8.14869 35945 ft 492 kts 73°
2026-05-06 17:53 35.44735 -8.06812 35942 ft 492 kts 73°
2026-05-06 17:53 35.46683 -7.98764 35940 ft 492 kts 73°
2026-05-06 17:54 35.48623 -7.90703 35942 ft 492 kts 73°
2026-05-06 17:54 35.50558 -7.82640 35945 ft 492 kts 73°
2026-05-06 17:55 35.52492 -7.74595 35932 ft 491 kts 73°
2026-05-06 17:55 35.54414 -7.66545 35938 ft 491 kts 74°
2026-05-06 17:56 35.56326 -7.58494 35918 ft 491 kts 73°
2026-05-06 17:56 35.58238 -7.50431 35928 ft 491 kts 73°
2026-05-06 17:57 35.60141 -7.42374 35926 ft 491 kts 73°
2026-05-06 17:57 35.62045 -7.34310 35927 ft 491 kts 73°
2026-05-06 17:58 35.63942 -7.26252 35923 ft 491 kts 73°
2026-05-06 17:58 35.65817 -7.18230 35926 ft 491 kts 73°
2026-05-06 17:59 35.67703 -7.10155 35921 ft 491 kts 73°
2026-05-06 17:59 35.69588 -7.02065 35923 ft 491 kts 73°
2026-05-06 18:00 35.71460 -6.93984 35919 ft 491 kts 74°
2026-05-06 18:00 35.73326 -6.85886 35928 ft 491 kts 74°
2026-05-06 18:01 35.75190 -6.77774 35916 ft 493 kts 74°
2026-05-06 18:01 35.77062 -6.69646 35923 ft 493 kts 74°
2026-05-06 18:02 35.78924 -6.61517 35918 ft 493 kts 74°
2026-05-06 18:02 35.80773 -6.53388 35912 ft 493 kts 74°
2026-05-06 18:03 35.82620 -6.45242 35911 ft 494 kts 75°
2026-05-06 18:03 35.84452 -6.37121 35908 ft 496 kts 75°
2026-05-06 18:04 35.86303 -6.28929 35910 ft 496 kts 75°
2026-05-06 18:04 35.88149 -6.20716 35908 ft 496 kts 75°
2026-05-06 18:05 35.89985 -6.12508 35906 ft 496 kts 75°
2026-05-06 18:05 35.91825 -6.04293 35909 ft 500 kts 75°
2026-05-06 18:06 35.93649 -5.95996 35907 ft 501 kts 79°
2026-05-06 18:06 35.94769 -5.87522 35900 ft 500 kts 83°
2026-05-06 18:07 35.95824 -5.79035 35904 ft 500 kts 83°
2026-05-06 18:07 35.96887 -5.70542 35879 ft 500 kts 83°
2026-05-06 18:08 35.97956 -5.62026 35895 ft 503 kts 83°
2026-05-06 18:08 35.99012 -5.53524 35894 ft 504 kts 83°
2026-05-06 18:09 36.00059 -5.44967 35893 ft 504 kts 84°
2026-05-06 18:09 36.01097 -5.36405 35892 ft 504 kts 84°
2026-05-06 18:10 36.02141 -5.27832 35882 ft 507 kts 83°
2026-05-06 18:10 36.03190 -5.19207 35890 ft 508 kts 84°
2026-05-06 18:11 36.04049 -5.12032 35886 ft 508 kts 84°
2026-05-06 18:11 36.05244 -5.01930 35881 ft 508 kts 84°
2026-05-06 18:12 36.06265 -4.93300 35870 ft 508 kts 85°
2026-05-06 18:12 36.07278 -4.84703 35876 ft 508 kts 85°
2026-05-06 18:13 36.08288 -4.76048 35876 ft 509 kts 85°
2026-05-06 18:13 36.09195 -4.67373 35876 ft 507 kts 88°
2026-05-06 18:14 36.09787 -4.58694 35879 ft 506 kts 90°
2026-05-06 18:14 36.10289 -4.50006 35879 ft 507 kts 89°
2026-05-06 18:15 36.10849 -4.41296 35879 ft 508 kts 89°
2026-05-06 18:15 36.11468 -4.32580 35879 ft 508 kts 89°
2026-05-06 18:16 36.12088 -4.23870 35882 ft 508 kts 89°
2026-05-06 18:16 36.12671 -4.15221 35882 ft 508 kts 89°
2026-05-06 18:17 36.13246 -4.06456 35885 ft 508 kts 89°
2026-05-06 18:17 36.13805 -3.97809 35885 ft 508 kts 89°
2026-05-06 18:18 36.14362 -3.89095 35885 ft 508 kts 89°
2026-05-06 18:18 36.14925 -3.80382 35873 ft 508 kts 89°
2026-05-06 18:19 36.15484 -3.71651 35884 ft 509 kts 89°
2026-05-06 18:19 36.16026 -3.62914 35890 ft 509 kts 89°
2026-05-06 18:20 36.16563 -3.54167 35890 ft 509 kts 90°
2026-05-06 18:20 36.17096 -3.45424 35890 ft 509 kts 89°
2026-05-06 18:21 36.17636 -3.36669 35890 ft 511 kts 90°
2026-05-06 18:21 36.18164 -3.27894 35889 ft 511 kts 90°
2026-05-06 18:22 36.18673 -3.19182 35889 ft 511 kts 90°
2026-05-06 18:22 36.19180 -3.10408 35889 ft 511 kts 90°
2026-05-06 18:23 36.19691 -3.01627 35891 ft 512 kts 90°
2026-05-06 18:23 36.20105 -2.94242 35893 ft 514 kts 90°
2026-05-06 18:24 36.20928 -2.85441 35893 ft 518 kts 79°
2026-05-06 18:24 36.22665 -2.76852 35889 ft 516 kts 78°
2026-05-06 18:25 36.24396 -2.68234 35892 ft 515 kts 78°
2026-05-06 18:25 36.26114 -2.59606 35893 ft 516 kts 78°
2026-05-06 18:26 36.27831 -2.50963 35893 ft 516 kts 78°
2026-05-06 18:26 36.29548 -2.42322 35892 ft 516 kts 78°
2026-05-06 18:27 36.31258 -2.33678 35890 ft 516 kts 79°
2026-05-06 18:27 36.32955 -2.25021 35895 ft 518 kts 79°
2026-05-06 18:28 36.34653 -2.16340 35895 ft 518 kts 79°
2026-05-06 18:28 36.36352 -2.07641 35895 ft 519 kts 78°
2026-05-06 18:29 36.38572 -1.99104 35894 ft 520 kts 72°
2026-05-06 18:29 36.40942 -1.90676 35878 ft 520 kts 72°
2026-05-06 18:30 36.43329 -1.82114 35898 ft 522 kts 72°
2026-05-06 18:30 36.45687 -1.73641 35896 ft 522 kts 72°
2026-05-06 18:31 36.48051 -1.65110 35897 ft 522 kts 72°
2026-05-06 18:31 36.50410 -1.56584 35892 ft 520 kts 72°
2026-05-06 18:32 36.52752 -1.48096 35897 ft 519 kts 72°
2026-05-06 18:32 36.55091 -1.39596 35900 ft 519 kts 72°
2026-05-06 18:33 36.57427 -1.31089 35897 ft 519 kts 72°
2026-05-06 18:33 36.59702 -1.22562 35900 ft 518 kts 77°
2026-05-06 18:34 36.60880 -1.13807 35878 ft 516 kts 85°
2026-05-06 18:34 36.61879 -1.04949 35899 ft 518 kts 85°
2026-05-06 18:35 36.62896 -0.96074 35893 ft 518 kts 85°
2026-05-06 18:35 36.63894 -0.87183 35902 ft 518 kts 85°
2026-05-06 18:36 36.64881 -0.78302 35893 ft 518 kts 85°
2026-05-06 18:36 36.65859 -0.69395 35894 ft 520 kts 85°
2026-05-06 18:37 36.66830 -0.60454 35903 ft 521 kts 85°
2026-05-06 18:37 36.67792 -0.51506 35896 ft 521 kts 85°
2026-05-06 18:38 36.68751 -0.42569 35900 ft 521 kts 85°
2026-05-06 18:38 36.69709 -0.33613 35900 ft 521 kts 85°
2026-05-06 18:39 36.70663 -0.24666 35902 ft 521 kts 85°
2026-05-06 18:40 36.72077 -0.11221 35901 ft 521 kts 85°
2026-05-06 18:40 36.73008 -0.02264 35902 ft 521 kts 85°
2026-05-06 18:41 36.73939 0.06680 35904 ft 525 kts 85°
2026-05-06 18:41 36.74868 0.15719 35943 ft 525 kts 85°
2026-05-06 18:42 36.75777 0.24666 35904 ft 517 kts 85°
2026-05-06 18:42 36.76676 0.33552 35906 ft 516 kts 85°
2026-05-06 18:43 36.77566 0.42441 35908 ft 517 kts 85°
2026-05-06 18:43 36.78451 0.51353 35907 ft 518 kts 85°
2026-05-06 18:44 36.79344 0.60278 35912 ft 518 kts 85°
2026-05-06 18:44 36.80227 0.69206 35910 ft 518 kts 85°
2026-05-06 18:45 36.81094 0.78147 35901 ft 519 kts 85°
2026-05-06 18:45 36.81944 0.87060 35908 ft 521 kts 85°
2026-05-06 18:46 36.82801 0.96045 35905 ft 521 kts 85°
2026-05-06 18:46 36.83659 1.05032 35911 ft 522 kts 85°
2026-05-06 18:47 36.84504 1.14025 35913 ft 522 kts 86°
2026-05-06 18:47 36.85340 1.23060 35915 ft 525 kts 85°
2026-05-06 18:48 36.86185 1.32129 35919 ft 526 kts 85°
2026-05-06 18:48 36.87021 1.41206 35918 ft 526 kts 86°
2026-05-06 18:49 36.87848 1.50292 35920 ft 526 kts 86°
2026-05-06 18:49 36.88679 1.59401 35922 ft 530 kts 85°
2026-05-06 18:50 36.89499 1.68557 35922 ft 531 kts 86°
2026-05-06 18:50 36.90304 1.77726 35921 ft 531 kts 86°
2026-05-06 18:51 36.91106 1.86894 35921 ft 531 kts 86°
2026-05-06 18:51 36.91903 1.96079 35926 ft 534 kts 86°
2026-05-06 18:52 36.92705 2.05339 35926 ft 536 kts 86°
2026-05-06 18:52 36.93496 2.14599 35926 ft 536 kts 86°
2026-05-06 18:53 36.94277 2.23875 35929 ft 536 kts 86°
2026-05-06 18:53 36.95053 2.33096 35963 ft 539 kts 86°
2026-05-06 18:53 36.95444 2.37782 36093 ft 541 kts 86°
2026-05-06 18:54 36.95835 2.42467 36260 ft 541 kts 86°
2026-05-06 18:54 36.96224 2.47144 36468 ft 541 kts 86°
2026-05-06 18:54 36.96611 2.51822 36715 ft 540 kts 86°
2026-05-06 18:54 36.96998 2.56475 37102 ft 534 kts 86°
2026-05-06 18:55 36.97379 2.61074 37395 ft 531 kts 86°
2026-05-06 18:55 36.97750 2.65659 37626 ft 529 kts 86°
2026-05-06 18:55 36.98113 2.70240 37821 ft 529 kts 86°
2026-05-06 18:55 36.98471 2.74823 37933 ft 529 kts 86°
2026-05-06 18:56 36.98831 2.79400 37932 ft 529 kts 86°
2026-05-06 18:56 36.99553 2.88561 37932 ft 529 kts 86°
2026-05-06 18:57 37.00272 2.97704 37938 ft 529 kts 86°
2026-05-06 18:57 37.00987 3.06809 37908 ft 529 kts 86°
2026-05-06 18:58 37.01698 3.16004 37934 ft 531 kts 87°
2026-05-06 18:58 37.02395 3.25208 37933 ft 531 kts 87°
2026-05-06 18:59 37.03086 3.34413 37932 ft 531 kts 87°
2026-05-06 18:59 37.03772 3.43624 37931 ft 531 kts 87°
2026-05-06 19:00 37.04456 3.52841 37932 ft 531 kts 87°
2026-05-06 19:00 37.05124 3.62050 37934 ft 531 kts 87°
2026-05-06 19:00 37.05343 3.65102 37799 ft 531 kts 87°
2026-05-06 19:01 37.05785 3.71264 36893 ft 531 kts 87°
2026-05-06 19:01 37.06114 3.75876 36231 ft 532 kts 87°
2026-05-06 19:01 37.06442 3.80505 35945 ft 533 kts 87°
2026-05-06 19:02 37.07101 3.89813 35920 ft 541 kts 87°
2026-05-06 19:02 37.08035 3.99198 35934 ft 545 kts 82°
2026-05-06 19:03 37.09364 4.08556 35934 ft 546 kts 81°
2026-05-06 19:03 37.10690 4.17911 35931 ft 545 kts 82°
2026-05-06 19:04 37.11873 4.27337 35938 ft 550 kts 83°
2026-05-06 19:04 37.12999 4.36834 35937 ft 552 kts 83°
2026-05-06 19:05 37.14145 4.46288 35933 ft 552 kts 83°
2026-05-06 19:05 37.15320 4.55788 35936 ft 548 kts 82°
2026-05-06 19:06 37.16480 4.65166 35935 ft 545 kts 83°
2026-05-06 19:06 37.17603 4.74562 35937 ft 545 kts 83°
2026-05-06 19:07 37.18712 4.83970 35934 ft 545 kts 83°
2026-05-06 19:07 37.19833 4.93372 35934 ft 545 kts 83°
2026-05-06 19:08 37.20769 5.01208 35936 ft 549 kts 82°
2026-05-06 19:08 37.21896 5.10730 35927 ft 553 kts 83°
2026-05-06 19:09 37.22994 5.20274 35933 ft 553 kts 83°
2026-05-06 19:09 37.24273 5.31391 35934 ft 553 kts 83°
2026-05-06 19:10 37.25194 5.39401 35936 ft 555 kts 83°
2026-05-06 19:10 37.26289 5.48998 35931 ft 556 kts 83°
2026-05-06 19:11 37.27379 5.58600 35928 ft 556 kts 83°
2026-05-06 19:11 37.28460 5.68211 35925 ft 555 kts 83°
2026-05-06 19:12 37.29527 5.77771 35935 ft 557 kts 83°
2026-05-06 19:12 37.30593 5.87421 35929 ft 558 kts 84°
2026-05-06 19:13 37.31658 5.97078 35928 ft 558 kts 84°
2026-05-06 19:13 37.32714 6.06733 35946 ft 554 kts 83°
2026-05-06 19:14 37.33761 6.16289 35934 ft 552 kts 84°
2026-05-06 19:14 37.34784 6.25848 35933 ft 551 kts 84°
2026-05-06 19:15 37.35785 6.35403 35933 ft 551 kts 84°
2026-05-06 19:15 37.36780 6.44899 35935 ft 551 kts 84°
2026-05-06 19:16 37.37789 6.54488 35941 ft 555 kts 84°
2026-05-06 19:16 37.38797 6.64123 35939 ft 556 kts 84°
2026-05-06 19:17 37.39799 6.73778 35938 ft 557 kts 84°
2026-05-06 19:17 37.40786 6.83430 35939 ft 556 kts 84°
2026-05-06 19:18 37.41765 6.93107 35942 ft 558 kts 84°
2026-05-06 19:18 37.42741 7.02792 35947 ft 558 kts 84°
2026-05-06 19:19 37.43704 7.12487 35949 ft 558 kts 84°
2026-05-06 19:19 37.44661 7.22173 35948 ft 558 kts 84°
2026-05-06 19:20 37.45616 7.31870 35949 ft 558 kts 84°
2026-05-06 19:20 37.46553 7.41567 35950 ft 558 kts 84°
2026-05-06 19:21 37.47485 7.51262 35950 ft 558 kts 84°
2026-05-06 19:21 37.48415 7.60918 35926 ft 553 kts 84°
2026-05-06 19:22 37.49327 7.70478 35950 ft 554 kts 84°
2026-05-06 19:22 37.50230 7.80104 35955 ft 554 kts 84°
2026-05-06 19:23 37.51126 7.89806 35959 ft 554 kts 84°
2026-05-06 19:23 37.52007 7.99394 35950 ft 553 kts 84°
2026-05-06 19:24 37.52887 8.09018 35955 ft 553 kts 84°
2026-05-06 19:24 37.53767 8.18637 35953 ft 553 kts 84°
2026-05-06 19:25 37.54634 8.28265 35952 ft 553 kts 85°
2026-05-06 19:25 37.55484 8.37902 35948 ft 554 kts 85°
2026-05-06 19:26 37.56329 8.47564 35949 ft 555 kts 85°
2026-05-06 19:26 37.57172 8.57166 35950 ft 555 kts 85°
2026-05-06 19:27 37.58013 8.66905 35949 ft 555 kts 85°
2026-05-06 19:27 37.58836 8.76520 35957 ft 556 kts 84°
2026-05-06 19:28 37.59657 8.86232 35950 ft 557 kts 85°
2026-05-06 19:28 37.60467 8.95944 35942 ft 557 kts 85°
2026-05-06 19:29 37.61276 9.05648 35942 ft 554 kts 85°
2026-05-06 19:29 37.62082 9.15271 35960 ft 551 kts 84°
2026-05-06 19:30 37.62863 9.24871 35945 ft 550 kts 85°
2026-05-06 19:30 37.63628 9.34479 35948 ft 550 kts 85°
2026-05-06 19:31 37.64392 9.44078 35949 ft 550 kts 85°
2026-05-06 19:31 37.65565 9.58469 35943 ft 553 kts 83°
2026-05-06 19:32 37.66563 9.68102 35950 ft 553 kts 82°
2026-05-06 19:32 37.67663 9.77711 35941 ft 553 kts 82°
2026-05-06 19:33 37.68725 9.87330 35944 ft 553 kts 82°
2026-05-06 19:33 37.69717 9.96947 35947 ft 552 kts 83°
2026-05-06 19:34 37.70695 10.06582 35951 ft 552 kts 82°
2026-05-06 19:34 37.71677 10.16141 35950 ft 552 kts 82°
2026-05-06 19:35 37.72669 10.25754 35952 ft 551 kts 82°
2026-05-06 19:35 37.73649 10.35354 35981 ft 550 kts 82°
2026-05-06 19:36 37.74616 10.44881 35949 ft 544 kts 83°
2026-05-06 19:36 37.75552 10.54368 35954 ft 544 kts 83°
2026-05-06 19:37 37.76484 10.63842 35961 ft 543 kts 82°
2026-05-06 19:37 37.77257 10.71703 35959 ft 542 kts 82°
2026-05-06 19:38 37.78335 10.82762 35963 ft 542 kts 82°
2026-05-06 19:38 37.79250 10.92229 35968 ft 542 kts 82°
2026-05-06 19:39 37.80156 11.01697 35970 ft 543 kts 83°
2026-05-06 19:39 37.81052 11.11172 35970 ft 542 kts 83°
2026-05-06 19:40 37.81940 11.20648 35969 ft 543 kts 83°
2026-05-06 19:40 37.82820 11.30128 35971 ft 543 kts 83°
2026-05-06 19:41 37.83689 11.39516 35978 ft 539 kts 83°
2026-05-06 19:41 37.84560 11.48934 35976 ft 539 kts 83°
2026-05-06 19:42 37.85412 11.58354 35978 ft 539 kts 83°
2026-05-06 19:42 37.86258 11.67840 35965 ft 539 kts 83°
2026-05-06 19:43 37.87086 11.77199 35977 ft 539 kts 83°
2026-05-06 19:43 37.87921 11.86617 35977 ft 538 kts 83°
2026-05-06 19:44 37.88745 11.96042 35978 ft 539 kts 83°
2026-05-06 19:44 37.89561 12.05478 35958 ft 539 kts 83°
2026-05-06 19:45 37.90373 12.14893 35965 ft 538 kts 83°
2026-05-06 19:45 37.91179 12.24307 35942 ft 538 kts 83°
2026-05-06 19:46 37.91974 12.33723 35918 ft 538 kts 83°
2026-05-06 19:46 37.92752 12.43153 35917 ft 537 kts 83°
2026-05-06 19:47 37.93523 12.52544 35920 ft 536 kts 83°
2026-05-06 19:47 37.94288 12.61936 35923 ft 536 kts 83°
2026-05-06 19:48 37.95049 12.71337 35933 ft 536 kts 83°
2026-05-06 19:48 37.95805 12.80653 35932 ft 531 kts 83°
2026-05-06 19:49 37.96549 12.89850 35974 ft 522 kts 83°
2026-05-06 19:49 37.97265 12.98996 35945 ft 520 kts 84°
2026-05-06 19:50 37.97964 13.08133 35940 ft 521 kts 84°
2026-05-06 19:50 37.98660 13.17259 35971 ft 518 kts 84°
2026-05-06 19:51 37.99353 13.26314 35983 ft 515 kts 84°
2026-05-06 19:51 38.00035 13.35351 35989 ft 514 kts 84°
2026-05-06 19:52 38.00707 13.44326 35992 ft 514 kts 84°
2026-05-06 19:52 38.01372 13.53363 35994 ft 514 kts 84°
2026-05-06 19:53 38.02029 13.62383 35992 ft 514 kts 84°
2026-05-06 19:53 38.02681 13.71404 35997 ft 513 kts 84°
2026-05-06 19:54 38.03330 13.80426 35997 ft 513 kts 84°
2026-05-06 19:54 38.03970 13.89442 35996 ft 511 kts 84°
2026-05-06 19:55 38.04595 13.98398 35997 ft 509 kts 84°
2026-05-06 19:55 38.05209 14.07325 35987 ft 504 kts 85°
2026-05-06 19:56 38.05810 14.16155 36004 ft 502 kts 85°
2026-05-06 19:56 38.06306 14.23484 35999 ft 501 kts 85°
2026-05-06 19:57 38.06898 14.32285 35996 ft 500 kts 85°
2026-05-06 19:57 38.07481 14.41082 35999 ft 500 kts 85°
2026-05-06 19:58 38.08058 14.49887 36000 ft 500 kts 85°
2026-05-06 19:58 38.08624 14.58692 36005 ft 500 kts 85°
2026-05-06 19:59 38.09189 14.67495 36014 ft 501 kts 85°
2026-05-06 19:59 38.09747 14.76306 36001 ft 501 kts 86°
2026-05-06 20:00 38.10301 14.85123 36006 ft 502 kts 86°
2026-05-06 20:00 38.10852 14.93965 36003 ft 500 kts 86°
2026-05-06 20:01 38.11388 15.02690 36008 ft 494 kts 86°
2026-05-06 20:01 38.11906 15.11335 36016 ft 493 kts 86°
2026-05-06 20:02 38.12414 15.20024 36016 ft 493 kts 86°
2026-05-06 20:02 38.12923 15.28693 36021 ft 489 kts 86°
2026-05-06 20:03 38.13428 15.37259 36035 ft 485 kts 86°
2026-05-06 20:03 38.13914 15.45810 36045 ft 485 kts 86°
2026-05-06 20:04 38.14396 15.54345 36054 ft 485 kts 86°
2026-05-06 20:04 38.14870 15.62900 36057 ft 485 kts 86°
2026-05-06 20:05 38.15337 15.71392 36056 ft 484 kts 86°
2026-05-06 20:05 38.15803 15.79918 36051 ft 484 kts 86°
2026-05-06 20:06 38.16263 15.88445 36043 ft 484 kts 86°
2026-05-06 20:06 38.16713 15.96979 36035 ft 484 kts 87°
2026-05-06 20:07 38.17154 16.05518 36034 ft 484 kts 86°
2026-05-06 20:07 38.17590 16.14059 36038 ft 484 kts 86°
2026-05-06 20:08 38.18030 16.22601 36038 ft 484 kts 86°
2026-05-06 20:08 38.18459 16.31153 36039 ft 484 kts 87°
2026-05-06 20:09 38.18874 16.39689 36045 ft 482 kts 86°
2026-05-06 20:09 38.19286 16.48179 36043 ft 479 kts 86°
2026-05-06 20:10 38.19692 16.56578 36043 ft 479 kts 86°
2026-05-06 20:10 38.20086 16.65036 36046 ft 479 kts 86°
2026-05-06 20:11 38.20479 16.73479 36046 ft 477 kts 86°
2026-05-06 20:11 38.20865 16.81885 36046 ft 476 kts 86°
2026-05-06 20:12 38.21239 16.90287 36046 ft 476 kts 86°
2026-05-06 20:12 38.21610 16.98698 36049 ft 476 kts 86°
2026-05-06 20:13 38.21979 17.07090 36045 ft 475 kts 86°
2026-05-06 20:13 38.22340 17.15472 36054 ft 474 kts 86°
2026-05-06 20:14 38.22688 17.23845 36055 ft 474 kts 86°
2026-05-06 20:14 38.23031 17.32227 36056 ft 474 kts 86°
2026-05-06 20:15 38.23367 17.40608 36058 ft 474 kts 86°
2026-05-06 20:15 38.23700 17.48969 36067 ft 473 kts 86°
2026-05-06 20:16 38.24032 17.57268 36064 ft 473 kts 86°
2026-05-06 20:16 38.24352 17.65623 36065 ft 472 kts 87°
2026-05-06 20:17 38.24671 17.73968 36066 ft 472 kts 87°
2026-05-06 20:17 38.24979 17.82308 36072 ft 472 kts 87°
2026-05-06 20:18 38.25280 17.90653 36074 ft 472 kts 87°
2026-05-06 20:18 38.25580 17.98992 36073 ft 472 kts 87°
2026-05-06 20:19 38.25873 18.07271 36073 ft 472 kts 87°
2026-05-06 20:19 38.26156 18.15618 36071 ft 472 kts 87°
2026-05-06 20:20 38.26432 18.23970 36080 ft 472 kts 87°
2026-05-06 20:20 38.26707 18.32318 36080 ft 472 kts 87°
2026-05-06 20:21 38.26983 18.40663 36078 ft 472 kts 87°
2026-05-06 20:21 38.27071 18.49009 36078 ft 472 kts 98°
2026-05-06 20:22 38.25761 18.57204 36078 ft 473 kts 102°
2026-05-06 20:22 38.24361 18.65383 36085 ft 473 kts 103°
2026-05-06 20:23 38.22939 18.73555 36087 ft 473 kts 103°
2026-05-06 20:23 38.21521 18.81725 36093 ft 473 kts 102°
2026-05-06 20:24 38.20113 18.89901 36092 ft 474 kts 102°
2026-05-06 20:24 38.18692 18.98086 36089 ft 474 kts 102°
2026-05-06 20:25 38.17258 19.06249 36098 ft 474 kts 102°
2026-05-06 20:25 38.15832 19.14377 36101 ft 474 kts 101°
2026-05-06 20:26 38.14390 19.22552 36105 ft 475 kts 102°
2026-05-06 20:26 38.12937 19.30732 36102 ft 475 kts 102°
2026-05-06 20:27 38.11480 19.38910 36099 ft 475 kts 102°
2026-05-06 20:27 38.10021 19.47084 36109 ft 475 kts 101°
2026-05-06 20:28 38.08563 19.55279 36109 ft 475 kts 101°
2026-05-06 20:28 38.07090 19.63456 36107 ft 475 kts 101°
2026-05-06 20:29 38.05598 19.71638 36107 ft 476 kts 101°
2026-05-06 20:29 38.04115 19.79760 36110 ft 476 kts 101°
2026-05-06 20:30 38.01885 19.92014 36112 ft 475 kts 101°
2026-05-06 20:31 38.00389 20.00176 36111 ft 475 kts 101°
2026-05-06 20:31 37.98886 20.08325 36112 ft 475 kts 101°
2026-05-06 20:32 37.97371 20.16475 36111 ft 475 kts 101°
2026-05-06 20:32 37.95853 20.24614 36109 ft 475 kts 101°
2026-05-06 20:33 37.94335 20.32748 36112 ft 474 kts 101°
2026-05-06 20:33 37.92815 20.40882 36112 ft 474 kts 101°
2026-05-06 20:34 37.91288 20.49016 36113 ft 474 kts 101°
2026-05-06 20:34 37.89755 20.57126 36109 ft 473 kts 101°
2026-05-06 20:35 37.88218 20.65234 36112 ft 473 kts 101°
2026-05-06 20:35 37.86667 20.73337 36110 ft 473 kts 101°
2026-05-06 20:36 37.85128 20.81379 36115 ft 473 kts 101°
2026-05-06 20:36 37.83574 20.89467 36111 ft 472 kts 101°
2026-05-06 20:37 37.82019 20.97543 36110 ft 472 kts 101°
2026-05-06 20:37 37.80455 21.05616 36110 ft 472 kts 102°
2026-05-06 20:38 37.78884 21.13681 36130 ft 472 kts 102°
2026-05-06 20:38 37.77314 21.21739 36132 ft 472 kts 102°
2026-05-06 20:39 37.75748 21.29752 36130 ft 472 kts 102°
2026-05-06 20:39 37.74164 21.37803 36127 ft 472 kts 102°
2026-05-06 20:40 37.72585 21.45844 36124 ft 471 kts 100°
2026-05-06 20:40 37.72001 21.54037 36122 ft 467 kts 86°
2026-05-06 20:41 37.72726 21.62141 36117 ft 464 kts 79°
2026-05-06 20:41 37.73775 21.70172 36118 ft 463 kts 76°
2026-05-06 20:42 37.75130 21.78115 36115 ft 462 kts 74°
2026-05-06 20:42 37.76507 21.86047 36130 ft 463 kts 75°
2026-05-06 20:43 37.77796 21.94027 36126 ft 464 kts 76°
2026-05-06 20:43 37.78835 22.00681 36136 ft 464 kts 76°
2026-05-06 20:44 37.80079 22.08691 36137 ft 464 kts 76°
2026-05-06 20:44 37.81337 22.16676 35534 ft 462 kts 76°
2026-05-06 20:44 37.81963 22.20648 34809 ft 463 kts 76°
2026-05-06 20:45 37.82594 22.24656 33946 ft 466 kts 76°
2026-05-06 20:45 37.83227 22.28688 33002 ft 469 kts 76°
2026-05-06 20:45 37.83863 22.32757 32084 ft 472 kts 76°
2026-05-06 20:45 37.84498 22.36835 31200 ft 474 kts 76°
2026-05-06 20:46 37.85133 22.40923 30347 ft 474 kts 76°
2026-05-06 20:46 37.85768 22.45026 29385 ft 474 kts 76°
2026-05-06 20:46 37.86399 22.49127 28440 ft 474 kts 77°
2026-05-06 20:46 37.87017 22.53173 27525 ft 474 kts 77°
2026-05-06 20:47 37.87641 22.57266 26635 ft 473 kts 77°
2026-05-06 20:47 37.88270 22.61393 25749 ft 471 kts 77°
2026-05-06 20:47 37.88889 22.65454 24914 ft 469 kts 77°
2026-05-06 20:47 37.89505 22.69496 24099 ft 467 kts 77°
2026-05-06 20:48 37.90114 22.73485 23236 ft 466 kts 78°
2026-05-06 20:48 37.90726 22.77505 22306 ft 465 kts 78°
2026-05-06 20:48 37.91335 22.81520 21412 ft 464 kts 77°
2026-05-06 20:48 37.91941 22.85529 20534 ft 462 kts 78°
2026-05-06 20:49 37.92540 22.89526 19691 ft 461 kts 78°
2026-05-06 20:49 37.93134 22.93512 18865 ft 460 kts 78°
2026-05-06 20:49 37.93725 22.97488 18016 ft 458 kts 78°
2026-05-06 20:49 37.94313 23.01448 17094 ft 457 kts 78°
2026-05-06 20:50 37.94901 23.05393 16230 ft 455 kts 78°
2026-05-06 20:50 37.95482 23.09283 15775 ft 443 kts 78°
2026-05-06 20:50 37.96044 23.13060 15412 ft 430 kts 78°
2026-05-06 20:50 37.96589 23.16737 15051 ft 418 kts 78°
2026-05-06 20:51 37.97117 23.20310 14697 ft 406 kts 78°
2026-05-06 20:51 37.97625 23.23741 14350 ft 397 kts 78°
2026-05-06 20:51 37.98126 23.27142 13999 ft 388 kts 78°
2026-05-06 20:51 37.98614 23.30464 13620 ft 379 kts 78°
2026-05-06 20:52 37.99096 23.33747 13226 ft 385 kts 78°
2026-05-06 20:52 37.99596 23.37172 12838 ft 401 kts 78°
2026-05-06 20:52 38.00103 23.40660 12455 ft 403 kts 78°
2026-05-06 20:52 38.00608 23.44146 12081 ft 401 kts 78°
2026-05-06 20:53 38.01111 23.47612 11709 ft 399 kts 78°
2026-05-06 20:53 38.01613 23.51059 11340 ft 396 kts 78°
2026-05-06 20:53 38.02112 23.54484 10975 ft 394 kts 78°
2026-05-06 20:53 38.02602 23.57855 10603 ft 383 kts 79°
2026-05-06 20:54 38.03073 23.61134 10247 ft 372 kts 79°
2026-05-06 20:54 38.03529 23.64326 9890 ft 362 kts 78°
2026-05-06 20:54 38.03970 23.67422 9560 ft 351 kts 79°
2026-05-06 20:54 38.04395 23.70404 9437 ft 335 kts 79°
2026-05-06 20:55 38.04802 23.73254 9305 ft 322 kts 79°
2026-05-06 20:55 38.05196 23.76016 8908 ft 318 kts 79°
2026-05-06 20:55 38.05591 23.78790 8294 ft 322 kts 79°
2026-05-06 20:55 38.05990 23.81598 7684 ft 325 kts 79°
2026-05-06 20:56 38.06390 23.84431 7068 ft 327 kts 79°
2026-05-06 20:56 38.06793 23.87281 6440 ft 330 kts 80°
2026-05-06 20:56 38.07201 23.90165 5786 ft 332 kts 80°
2026-05-06 20:56 38.07611 23.93058 5073 ft 335 kts 80°
2026-05-06 20:57 38.08024 23.95975 4189 ft 333 kts 80°
2026-05-06 20:57 38.08429 23.98831 3412 ft 322 kts 80°
2026-05-06 20:57 38.08810 24.01524 3137 ft 297 kts 81°
2026-05-06 20:57 38.09136 24.03986 3016 ft 268 kts 86°
2026-05-06 20:58 38.08914 24.06167 3018 ft 236 kts 113°
2026-05-06 20:58 38.08075 24.07842 3022 ft 221 kts 139°
2026-05-06 20:58 38.06850 24.08821 3024 ft 204 kts 168°
2026-05-06 20:58 38.05530 24.08629 2963 ft 189 kts 213°
2026-05-06 20:59 38.04790 24.07337 2779 ft 180 kts 251°
2026-05-06 20:59 38.04296 24.05974 2575 ft 167 kts 226°
2026-05-06 20:59 38.03445 24.05045 2381 ft 156 kts 221°
2026-05-06 20:59 38.02632 24.04188 2201 ft 148 kts 219°
2026-05-06 21:00 38.01837 24.03393 2017 ft 141 kts 218°
2026-05-06 21:00 38.01069 24.02645 1834 ft 137 kts 217°
2026-05-06 21:00 38.00311 24.01914 1646 ft 136 kts 217°
2026-05-06 21:00 37.99556 24.01190 1456 ft 136 kts 218°
2026-05-06 21:01 37.98801 24.00468 1278 ft 136 kts 217°
2026-05-06 21:01 37.98041 23.99743 1094 ft 137 kts 218°
2026-05-06 21:01 37.97267 23.99017 987 ft 142 kts 218°
2026-05-06 21:01 37.96486 23.98274 736 ft 142 kts 220°
2026-05-06 21:02 37.95707 23.97518 514 ft 141 kts 218°
2026-05-06 21:02 37.94928 23.96769 338 ft 140 kts 219°
2026-05-06 21:02 37.94220 23.96095 286 ft 96 kts 216°
2026-05-06 21:02 37.93935 23.95823 280 ft 17 kts 224°
2026-05-06 21:03 37.93860 23.95705 279 ft 17 kts 239°
2026-05-06 21:03 37.93812 23.95584 286 ft 12 kts 247°
2026-05-06 21:03 37.93804 23.95500 294 ft 10 kts 288°
2026-05-06 21:03 37.93851 23.95417 298 ft 15 kts 307°
2026-05-06 21:04 37.93915 23.95309 301 ft 6 kts 307°
2026-05-06 21:04 37.93942 23.95278 300 ft 4 kts 336°
2026-05-06 21:04 37.93956 23.95287 302 ft 2 kts 46°
2026-05-06 21:04 37.93966 23.95299 300 ft 4 kts 43°
2026-05-06 21:05 37.94001 23.95334 300 ft 2 kts 39°
2026-05-06 21:05 37.94002 23.95335 300 ft 0 kts 39°